User: anonymous   Login
Location: Mauna Kea VIS
(19.7591°N, 155.4561°W)
Time: 17:23:30
(UTC-10:00)
Language:

Cosmos 1624 Rocket - Orbit

View from above orbital plane
View from above orbital plane
View from above satellite
View from above satellite

Ground track
Ground track

The orbit data is extracted from the following two-line orbital elements,

1 15483U 85006B   17086.54602990 +.00000029 +00000-0 +18965-4 0  9991
2 15483 074.0455 145.0916 0018126 149.6148 314.4237 14.36168321684552
Epoch (UTC): 27 March 2017 13:06:16
Eccentricity: 0.0018126
inclination: 74.0455°
perigee height: 758 km
apogee height: 784 km
right ascension of ascending node: 145.0916°
argument of perigee: 149.6148°
revolutions per day: 14.36168321
mean anomaly at epoch: 314.4237°
orbit number at epoch: 68455

The dashed part of the orbit path shows where the satellite is in the earth's shadow,  

DLR